Location: Mococo
(38.0255°N, 122.1161°W)
Time: 07:16:50
(UTC+00:00)

Cosmos 1980 Rocket - Pass Details

Date: 13 February 2026
Orbit: 828 x 848 km, 71.0° (Epoch: 9 March)

Event Time Altitude Azimuth Distance (km) Brightness Sun altitude
Exits shadow 12:59:37 27° 198° (SSW) 1,545 3.4 -24.4°
Maximum altitude 13:02:47 86° 111° (ESE) 835 2.1 -23.8°
Drops below altitude 10° 13:08:23 10° 23° (NNE) 2,439 4.9 -22.7°
Sets 13:10:50 0° 23° (NNE) 3,378 5.6 -22.2°
